Buckeye, AZ

7:16 AM MST on October 18, 2019 (GMT -0700)
Buckeye Municipal

Weather History for KBXK - September, 2019

Change the Weather History Date:

Tuesday, September 17, 2019

  Actual Average (WUND) Record (WUND)
Temperature  
Mean Temperature 83 °F -  
Max Temperature 95 °F - - (-1)
Min Temperature 71 °F - - (-1)
Cooling Degree Days 18    
Growing Degree Days 33 (Base 50)    
Moisture  
Dew Point 64 °F    
Average Humidity 55    
Maximum Humidity 83    
Minimum Humidity 30    
Precipitation  
Precipitation 0.00 in - - ()
Sea Level Pressure  
Sea Level Pressure 29.87 in    
Wind  
Wind Speed 7 mph ()    
Max Wind Speed 14 mph    
Max Gust Speed 15 mph    
Visibility 10.0 miles    
Events      
Averages and records for this station are not official NWS values.
T = Trace of Precipitation, MM = Missing Value Source: Averaged Metar Reports

Daily Weather History Graph

Daily Weather History Graph

Search for Another Location

Airport or City:

Astronomy

Sep. 17, 2019 Rise Set
Actual Time 6:15 AM MST 6:34 PM MST
Civil Twilight 5:50 AM MST 6:59 PM MST
Nautical Twilight 5:21 AM MST 7:28 PM MST
Astronomical Twilight 4:51 AM MST 7:57 PM MST
Moon 8:48 PM MST (9/17) 9:15 AM MST (9/17)
Length of Visible Light 13h 08m
Length of Day
12h 19m
Waning Gibbous, 88% of the Moon is Illuminated
Sep 17
Waning Gibbous
Sep 21
Last Quarter
Sep 28
New
Oct 5
First Quarter
Oct 13
Full

Hourly Weather History & Observations

Time (MST) Temp. Heat Index Dew Point Humidity Pressure Visibility Wind Dir Wind Speed Gust Speed Precip Events Conditions
12:35 AM 75.2 °F - 64.4 °F 69% 29.88 in 10.0 mi East 11.5 mph - N/A   Partly Cloudy
12:55 AM 75.2 °F - 64.4 °F 69% 29.88 in 10.0 mi ESE 11.5 mph - N/A   Mostly Cloudy
1:15 AM 75.2 °F - 64.4 °F 69% 29.88 in 10.0 mi East 9.2 mph - N/A   Mostly Cloudy
1:35 AM 73.4 °F - 66.2 °F 78% 29.88 in 10.0 mi East 10.4 mph - N/A   Clear
1:55 AM 75.2 °F - 64.4 °F 69% 29.89 in 10.0 mi East 8.1 mph - N/A   Clear
2:15 AM 75.2 °F - 64.4 °F 69% 29.89 in 10.0 mi East 9.2 mph - N/A   Clear
2:35 AM 75.2 °F - 64.4 °F 69% 29.89 in 10.0 mi NNE 5.8 mph 11.5 mph N/A   Clear
2:55 AM 75.2 °F - 62.6 °F 65% 29.89 in 10.0 mi ENE 6.9 mph - N/A   Clear
3:15 AM 75.2 °F - 64.4 °F 69% 29.89 in 10.0 mi East 6.9 mph - N/A   Clear
3:35 AM 75.2 °F - 62.6 °F 65% 29.89 in 10.0 mi ESE 8.1 mph 15.0 mph N/A   Clear
3:55 AM 75.2 °F - 62.6 °F 65% 29.89 in 10.0 mi ESE 11.5 mph - N/A   Clear
4:15 AM 73.4 °F - 64.4 °F 73% 29.89 in 10.0 mi ESE 10.4 mph - N/A   Clear
4:35 AM 73.4 °F - 64.4 °F 73% 29.89 in 10.0 mi ESE 8.1 mph - N/A   Partly Cloudy
4:55 AM 71.6 °F - 64.4 °F 78% 29.89 in 10.0 mi SE 5.8 mph - N/A   Mostly Cloudy
5:15 AM 71.6 °F - 66.2 °F 83% 29.89 in 10.0 mi East 4.6 mph - N/A   Overcast
5:35 AM 73.4 °F - 64.4 °F 73% 29.89 in 10.0 mi East 8.1 mph - N/A   Scattered Clouds
5:55 AM 73.4 °F - 64.4 °F 73% 29.90 in 10.0 mi East 6.9 mph - N/A   Clear
6:15 AM 73.4 °F - 64.4 °F 73% 29.91 in 10.0 mi ENE 8.1 mph - N/A   Clear
6:35 AM 73.4 °F - 64.4 °F 73% 29.92 in 10.0 mi ESE 4.6 mph - N/A   Clear
6:55 AM 73.4 °F - 64.4 °F 73% 29.92 in 10.0 mi East 5.8 mph - N/A   Clear
7:15 AM 71.6 °F - 66.2 °F 83% 29.93 in 10.0 mi ESE 6.9 mph - N/A   Clear
7:35 AM 73.4 °F - 66.2 °F 78% 29.94 in 10.0 mi East 6.9 mph - N/A   Clear
7:55 AM 75.2 °F - 66.2 °F 73% 29.94 in 10.0 mi East 5.8 mph - N/A   Clear
8:15 AM 77.0 °F - 66.2 °F 69% 29.94 in 10.0 mi ESE 8.1 mph - N/A   Clear
8:35 AM 77.0 °F - 66.2 °F 69% 29.94 in 10.0 mi ESE 9.2 mph - N/A   Clear
8:55 AM 80.6 °F 82.7 °F 66.2 °F 61% 29.94 in 10.0 mi East 12.7 mph - N/A   Clear
9:15 AM 80.6 °F 82.3 °F 64.4 °F 58% 29.95 in 10.0 mi East 13.8 mph - N/A   Clear
9:35 AM 80.6 °F 82.7 °F 66.2 °F 61% 29.95 in 10.0 mi ESE 13.8 mph - N/A   Clear
9:55 AM 82.4 °F 84.6 °F 66.2 °F 58% 29.95 in 10.0 mi East 12.7 mph - N/A   Clear
10:15 AM 84.2 °F 85.6 °F 64.4 °F 51% 29.95 in 10.0 mi East 12.7 mph - N/A   Clear
10:55 AM 86.0 °F 86.6 °F 62.6 °F 45% 29.94 in 10.0 mi ESE 9.2 mph - N/A   Clear
11:15 AM 86.0 °F 87.3 °F 64.4 °F 48% 29.93 in 10.0 mi East 9.2 mph - N/A   Clear
11:35 AM 86.0 °F 88.2 °F 66.2 °F 51% 29.93 in 10.0 mi ESE 9.2 mph - N/A   Clear
11:55 AM 87.8 °F 89.4 °F 64.4 °F 46% 29.92 in 10.0 mi ESE 6.9 mph - N/A   Clear
12:15 PM 87.8 °F 88.5 °F 62.6 °F 43% 29.92 in 10.0 mi Calm Calm - N/A   Clear
12:35 PM 87.8 °F 89.4 °F 64.4 °F 46% 29.91 in 10.0 mi Calm Calm - N/A   Clear
12:55 PM 89.6 °F 91.1 °F 64.4 °F 43% 29.90 in 10.0 mi East 5.8 mph - N/A   Clear
1:15 PM 89.6 °F 90.1 °F 62.6 °F 40% 29.89 in 10.0 mi Calm Calm - N/A   Clear
1:35 PM 91.4 °F 92.1 °F 62.6 °F 38% 29.89 in 10.0 mi Calm Calm - N/A   Clear
1:55 PM 91.4 °F 92.1 °F 62.6 °F 38% 29.88 in 10.0 mi East 4.6 mph - N/A   Clear
2:15 PM 93.2 °F 94.1 °F 62.6 °F 36% 29.87 in 10.0 mi Calm Calm - N/A   Clear
2:35 PM 93.2 °F 94.1 °F 62.6 °F 36% 29.86 in 10.0 mi Calm Calm - N/A   Clear
2:55 PM 93.2 °F 93.3 °F 60.8 °F 34% 29.85 in 10.0 mi SSE 4.6 mph - N/A   Clear
3:15 PM 93.2 °F 93.3 °F 60.8 °F 34% 29.84 in 10.0 mi South 4.6 mph - N/A   Clear
3:35 PM 93.2 °F 93.3 °F 60.8 °F 34% 29.83 in 10.0 mi Variable 4.6 mph - N/A   Clear
3:55 PM 93.2 °F 92.6 °F 59.0 °F 32% 29.83 in 10.0 mi Calm Calm - N/A   Clear
4:15 PM 95.0 °F 94.4 °F 59.0 °F 30% 29.82 in 10.0 mi ESE 6.9 mph - N/A   Clear
4:35 PM 95.0 °F 95.2 °F 60.8 °F 32% 29.81 in 10.0 mi ESE 8.1 mph - N/A   Clear
4:55 PM 95.0 °F 95.2 °F 60.8 °F 32% 29.81 in 10.0 mi ESE 8.1 mph - N/A   Clear
5:15 PM 93.2 °F 93.3 °F 60.8 °F 34% 29.81 in 10.0 mi ESE 6.9 mph - N/A   Clear
5:35 PM 93.2 °F 94.1 °F 62.6 °F 36% 29.80 in 10.0 mi East 6.9 mph - N/A   Clear
5:55 PM 93.2 °F 94.1 °F 62.6 °F 36% 29.80 in 10.0 mi East 6.9 mph - N/A   Clear
6:15 PM 91.4 °F 93.2 °F 64.4 °F 41% 29.80 in 10.0 mi East 6.9 mph - N/A   Clear
6:55 PM 89.6 °F 92.2 °F 66.2 °F 46% 29.80 in 10.0 mi East 8.1 mph - N/A   Clear
7:15 PM 89.6 °F 91.1 °F 64.4 °F 43% 29.80 in 10.0 mi East 6.9 mph - N/A   Partly Cloudy
7:35 PM 87.8 °F 90.4 °F 66.2 °F 49% 29.80 in 10.0 mi East 6.9 mph - N/A   Partly Cloudy
7:55 PM 87.8 °F 90.4 °F 66.2 °F 49% 29.81 in 10.0 mi East 4.6 mph - N/A   Clear
8:15 PM 87.8 °F 89.4 °F 64.4 °F 46% 29.81 in 10.0 mi Calm Calm - N/A   Clear
8:35 PM 86.0 °F 87.3 °F 64.4 °F 48% 29.82 in 10.0 mi Calm Calm - N/A   Clear
8:55 PM 84.2 °F 85.6 °F 64.4 °F 51% 29.82 in 10.0 mi Calm Calm - N/A   Clear
9:15 PM 84.2 °F 86.6 °F 66.2 °F 55% 29.82 in 10.0 mi Calm Calm - N/A   Clear
9:35 PM 82.4 °F 84.6 °F 66.2 °F 58% 29.82 in 10.0 mi NW 5.8 mph - N/A   Clear
9:55 PM 82.4 °F 83.9 °F 64.4 °F 54% 29.82 in 10.0 mi NNW 4.6 mph - N/A   Clear
10:15 PM 80.6 °F 82.3 °F 64.4 °F 58% 29.82 in 10.0 mi North 3.5 mph - N/A   Clear
10:55 PM 80.6 °F 81.8 °F 62.6 °F 54% 29.82 in 10.0 mi North 6.9 mph - N/A   Clear
11:35 PM 80.6 °F 81.8 °F 62.6 °F 54% 29.82 in 10.0 mi NNE 5.8 mph - N/A   Clear
11:55 PM 77.0 °F - 64.4 °F 65% 29.83 in 10.0 mi Calm Calm - N/A   Clear